Regional Weather Roundup
Issued by NWS Kansas City/Pleasant Hill, MO

Home | Current Version | Previous Version | Graphics & Text | Print | Product List | Glossary Off
Versions: 1 2 3 4 5 6 7 8 9 10 11 12 13 14 15 16 17 18 19 20 21 22 23 24 25 26 27 28 29 30 31 32 33 34 35 36 37 38 39 40 41 42 43 44 45 46 47 48 49 50

174
ASUS43 KEAX 270210
RWREAX

WEATHER ROUNDUP FOR EASTERN KANSAS AND NORTHWEST MISSOURI
NATIONAL WEATHER SERVICE KANSAS CITY/PLEASANT HILL MO
900 PM CDT SUN MAR 26 2017

KSZ040-057-103>105-MOZ028-029-037-043-270300-
...KANSAS CITY METROPOLITAN AREA...

CITY           SKY/WX    TMP DP  RH WIND       PRES   REMARKS
K.C. INTL      CLOUDY    50  45  83 NW5       29.96R
K.C. DOWNTOWN  CLOUDY    52  45  77 N8        29.94R
LEES SUMMIT    CLOUDY    51  45  79 N12       29.93S
OLATHE - IXD   CLOUDY    49  45  86 N9        29.93R
OLATHE - OJC   LGT RAIN  51  46  83 N8        29.93R
LAWRENCE       LGT RAIN  49  47  93 N10       29.91F

$$

MOZ001>008-011>017-020>025-030>033-038>040-044>046-053-054-270300-
...NORTHERN AND CENTRAL MISSOURI...

CITY           SKY/WX    TMP DP  RH WIND       PRES   REMARKS
ST. JOSEPH     CLOUDY    48  44  86 N7        29.96S
WARRENSBURG    CLOUDY    50  45  81 CALM      29.93R
WHITEMAN AFB   PTCLDY    48  48 100 N7        29.91R
CLINTON        CLOUDY    52  48  87 N9        29.89R
SEDALIA        PTCLDY    52  49  89 NE8       29.91F
WARSAW         NOT AVBL
CHILLICOTHE      N/A     50  45  83 CALM      29.97R
KIRKSVILLE     CLOUDY    48  43  82 CALM      29.95R

$$

MOZ041-047>049-056>058-063>065-088>090-097-270300-
...EASTERN AND SOUTHERN MISSOURI...

CITY           SKY/WX    TMP DP  RH WIND       PRES   REMARKS
ST. LOUIS INTL MOCLDY    57  49  74 NE5       29.95R
SPIRIT OF STL  CLOUDY    54  51  90 E3        29.94R
COLUMBIA       CLOUDY    52  48  86 N5        29.92S
JEFFERSON CITY CLOUDY    54  48  80 SW3       29.92S
ROLLA          CLOUDY    55  49  80 E7        29.90F
OSAGE BEACH    PTCLDY   N/A N/A N/A NE8       29.89F
SPRINGFIELD    MOCLDY    63  49  60 E8        29.84S
BRANSON        CLOUDY    63  46  55 SE8       29.86S
JOPLIN         RAIN      59  54  83 E13       29.84F
WEST PLAINS    CLOUDY    60  48  64 E6        29.91R

$$

IAZ060-094-KSZ022-034>040-054-083-096-NEZ052-066-093-270300-
...KANSAS...SOUTHEAST NEBRASKA AND IOWA...

CITY           SKY/WX    TMP DP  RH WIND       PRES   REMARKS
TOPEKA         LGT RAIN  48  48 100 N9        29.90F
MANHATTAN      CLOUDY    49  46  90 NE8       29.89F
EMPORIA        LGT RAIN  49  49 100 NE13      29.85F
CHANUTE        CLOUDY    56  50  80 NE13      29.83R
WICHITA        TSTM      51  49  92 NE13      29.82R FOG
OMAHA          CLOUDY    49  41  74 CALM      29.97R
LINCOLN        CLOUDY    48  42  80 CALM      29.97F
FALLS CITY     CLOUDY    47  43  86 NE3       29.96F
LAMONI         CLOUDY    47  43  86 NW3       29.94R
DES MOINES     DRIZZLE   46  44  93 NW3       29.95R FOG

$$





USA.gov is the U.S. government's official web portal to all federal, state and local government web resources and services.